TimeCST,TemperatureF,Dew PointF,Humidity,Sea Level PressureIn,VisibilityMPH,Wind Direction,Wind SpeedMPH,Gust SpeedMPH,PrecipitationIn,Events,Conditions,WindDirDegrees,DateUTC
12:54 AM,70.0,66.9,90,29.90,10.0,South,10.4,-,N/A,,Overcast,180,2013-12-05 06:54:00
1:14 AM,69.8,66.2,88,29.91,10.0,SSW,8.1,-,N/A,,Overcast,200,2013-12-05 07:14:00
1:54 AM,70.0,66.9,90,29.89,10.0,South,9.2,-,N/A,,Mostly Cloudy,170,2013-12-05 07:54:00
2:54 AM,70.0,66.9,90,29.90,10.0,South,10.4,-,N/A,,Mostly Cloudy,170,2013-12-05 08:54:00
3:54 AM,70.0,66.9,90,29.91,10.0,South,6.9,-,N/A,,Overcast,170,2013-12-05 09:54:00
4:11 AM,69.8,66.2,88,29.92,10.0,South,5.8,-,N/A,,Overcast,170,2013-12-05 10:11:00
4:40 AM,69.8,66.2,88,29.92,10.0,SSE,5.8,-,N/A,,Overcast,160,2013-12-05 10:40:00
4:54 AM,70.0,66.9,90,29.92,9.0,South,5.8,-,N/A,,Overcast,180,2013-12-05 10:54:00
5:11 AM,69.8,66.2,88,29.93,9.0,South,5.8,-,N/A,,Overcast,170,2013-12-05 11:11:00
5:42 AM,69.8,66.2,88,29.94,9.0,South,5.8,-,N/A,,Overcast,170,2013-12-05 11:42:00
5:54 AM,70.0,66.9,90,29.94,9.0,SSE,8.1,-,N/A,,Overcast,160,2013-12-05 11:54:00
6:54 AM,69.1,66.9,93,29.95,7.0,SSE,8.1,-,N/A,,Scattered Clouds,150,2013-12-05 12:54:00
7:54 AM,70.0,68.0,93,29.97,7.0,SSE,6.9,-,N/A,,Mostly Cloudy,160,2013-12-05 13:54:00
8:54 AM,73.0,69.1,87,29.98,10.0,South,6.9,-,N/A,,Scattered Clouds,170,2013-12-05 14:54:00
9:24 AM,73.4,68.0,83,29.98,10.0,South,9.2,-,N/A,,Mostly Cloudy,170,2013-12-05 15:24:00
9:54 AM,75.0,68.0,79,29.98,10.0,SSW,11.5,-,N/A,,Overcast,200,2013-12-05 15:54:00
10:54 AM,77.0,66.9,71,29.97,10.0,South,10.4,19.6,N/A,,Overcast,190,2013-12-05 16:54:00
11:06 AM,77.0,66.2,69,29.97,10.0,SSW,15.0,23.0,N/A,,Mostly Cloudy,200,2013-12-05 17:06:00
11:54 AM,78.1,66.9,68,29.93,10.0,South,13.8,-,N/A,,Mostly Cloudy,190,2013-12-05 17:54:00
12:54 PM,79.0,66.0,64,29.91,10.0,South,13.8,23.0,N/A,,Mostly Cloudy,190,2013-12-05 18:54:00
1:54 PM,81.0,66.0,60,29.88,10.0,South,13.8,-,N/A,,Mostly Cloudy,190,2013-12-05 19:54:00
2:54 PM,81.0,66.0,60,29.87,10.0,South,12.7,-,N/A,,Mostly Cloudy,190,2013-12-05 20:54:00
3:54 PM,79.0,64.9,62,29.88,10.0,South,12.7,-,N/A,,Overcast,190,2013-12-05 21:54:00
4:54 PM,77.0,66.0,69,29.89,10.0,SSW,4.6,-,N/A,,Overcast,210,2013-12-05 22:54:00
5:54 PM,61.0,54.0,78,29.94,10.0,NNW,16.1,-,N/A,,Overcast,340,2013-12-05 23:54:00
6:45 PM,55.4,50.0,82,29.97,10.0,NNE,9.2,16.1,N/A,,Overcast,20,2013-12-06 00:45:00
6:54 PM,54.0,50.0,86,29.96,10.0,NNE,9.2,-,N/A,,Overcast,20,2013-12-06 00:54:00
7:50 PM,51.8,48.2,88,29.97,10.0,North,9.2,-,N/A,,Overcast,350,2013-12-06 01:50:00
7:54 PM,52.0,48.9,89,29.97,10.0,North,9.2,-,N/A,,Overcast,350,2013-12-06 01:54:00
8:54 PM,51.1,48.0,89,29.99,10.0,NNW,6.9,-,N/A,,Overcast,340,2013-12-06 02:54:00
9:36 PM,51.8,48.2,88,29.99,9.0,North,6.9,-,N/A,,Overcast,360,2013-12-06 03:36:00
9:54 PM,50.0,48.0,93,29.99,8.0,NNW,6.9,-,N/A,,Overcast,340,2013-12-06 03:54:00
10:54 PM,48.9,46.9,93,30.00,5.0,NNW,8.1,-,N/A,,Overcast,340,2013-12-06 04:54:00
11:54 PM,46.9,46.0,97,29.99,4.0,North,6.9,-,N/A,,Overcast,350,2013-12-06 05:54:00